Temp_Advection
nan nan nan nan nan nan nan nan nan nan nan nan nan nan nan nan nan nan nan nan nan nan nan nan nan nan nan nan nan nan nan nan nan nan nan nan nan nan nan nan nan nan nan nan nan
nan -0 -0 -0 0 0 -1 -0 0 0 -0 -0 -1 -0 0 0 0 -1 -1 -0 -0 -0 -0 -1 -1 -1 -1 -1 -0 0 -1 -1 -0 -0 -0 -1 -1 -1 -0 -0 1 0 1 0 nan
nan -0 -0 0 0 -0 -0 0 0 -0 -0 -0 -0 -0 0 0 -0 -1 -0 -0 -1 -0 -0 -0 -0 -1 -0 -0 -0 -0 -1 -1 -0 -1 -0 -0 -1 -1 1 -0 -0 -1 1 1 nan
nan -0 -0 -0 -0 -0 -0 -0 -0 -0 -0 -0 -0 -0 -0 -0 -0 -0 -0 -0 0 0 -0 -0 -0 -0 -0 -0 -0 -0 -2 -1 -1 -1 -1 -0 -1 -2 -0 -1 1 -1 -0 -0 nan
nan 0 -0 -0 -0 -0 -0 -0 -0 -0 -0 -0 -0 -0 -0 -1 -0 0 -0 -0 0 -0 -0 -0 -0 -0 -0 -0 -1 -1 -1 -1 -0 -0 -1 -1 -0 -1 -2 -1 0 0 1 -1 nan
nan -0 -0 -0 -0 -0 -0 -0 -0 -0 -0 -0 -0 -0 -0 -1 0 -0 0 -0 -0 -0 -0 -0 -0 -0 0 -0 -0 -0 -1 -1 -1 -1 -0 -0 -1 -2 -1 -1 0 0 0 0 nan
nan -0 -0 -0 -0 -0 -0 -0 -0 -0 -0 -0 -0 -0 -0 0 0 -0 -0 -0 0 0 0 0 -0 -0 0 -0 -1 0 -0 -1 -1 -1 -1 0 0 -2 -2 -1 -0 -0 1 0 nan
nan -0 -0 -0 -0 0 0 0 0 -0 -0 -0 0 -0 -0 0 -0 -0 -1 -1 -1 -0 0 -0 0 0 -0 -0 -1 -0 -0 -0 -1 -0 0 0 -1 -0 -1 -0 -0 -0 -0 0 nan
nan -0 -0 -0 -0 0 0 0 -0 -0 0 -0 -0 -0 -0 -0 -1 -0 -1 -1 -1 -1 -1 -1 -0 1 1 0 -0 -0 -0 -1 -1 -1 0 -0 -0 -1 -1 0 0 -0 -1 0 nan
nan -0 -0 -0 -0 -0 -0 0 -0 -0 -0 -0 -0 -0 -0 -0 -0 0 -1 -1 -1 -1 -2 -1 -1 -1 -1 -0 -0 -0 -0 -0 -1 -0 -0 0 -1 -1 -0 0 -0 -0 -1 -1 nan
nan -0 -0 -0 -0 -0 -1 -0 -1 -0 -1 -0 -0 -0 -0 0 -0 -0 -1 -1 -1 -1 -1 -1 -1 -0 0 0 0 -0 -0 -0 -1 -0 -0 -2 -0 -0 -1 -0 0 -0 0 1 nan
nan -0 -0 -0 -0 -1 -1 -2 -1 -0 -0 0 -0 -0 -0 0 -0 -1 -0 -1 -0 -1 -0 -0 0 0 -0 -1 -1 -0 -0 -0 -1 -1 0 -0 -1 -1 -0 0 0 2 2 1 nan
nan -0 -0 -0 -0 -1 -1 -1 -0 -0 0 0 -0 -0 -0 -0 -0 -0 -1 -0 -0 -0 -0 0 0 -0 -1 -1 -1 -1 -0 -0 -1 -3 -1 -0 -0 -1 1 -2 -2 -1 1 1 nan
nan -0 -0 -0 -0 -0 -0 0 0 -0 0 -0 -0 -0 -0 -0 -0 0 -1 -0 -0 -0 -0 -0 -0 -1 -1 -0 0 -0 -0 -0 -0 -1 -0 0 -0 0 1 -2 -1 -2 -1 -0 nan
nan -0 -0 -0 -0 -0 0 0 -0 -0 -0 -1 -0 -0 -1 -1 -0 0 -1 -0 -0 0 -0 -0 0 -0 -1 -0 -0 -0 -1 -0 0 -0 -1 0 -0 -1 1 -2 -1 -1 -1 -1 nan
nan -0 -0 -0 -0 0 0 0 -0 -1 -0 -0 -0 -0 -1 -1 -1 -0 -1 -2 -0 -0 -0 0 -0 -0 -0 -1 -0 -1 -1 -0 0 0 -1 -0 0 -2 -2 -1 -1 -1 -1 -1 nan
nan -0 -0 -0 -0 0 0 -0 -1 0 0 -0 -0 -0 -0 -1 -0 -1 -1 -1 -1 -1 -2 -1 -0 -0 -0 -1 -1 -1 -1 -0 -0 0 -1 1 -0 -1 -0 -0 -1 -1 -1 -1 nan
nan -0 -0 -0 -0 0 0 -1 -0 -0 -0 -0 0 -0 -0 -0 -0 -1 -0 -0 -0 -0 -0 -0 -0 0 -0 -0 0 -0 -0 -0 -0 -0 -0 -2 -0 -0 -0 -1 -0 -0 -0 -0 nan
nan -0 -0 -0 -0 -0 -1 -1 0 -0 -0 -0 -0 -0 -0 -0 -0 -0 -0 0 0 0 0 -0 -1 0 -0 0 -0 0 -0 0 -0 -0 -0 -0 -0 -0 -1 -0 -0 -0 -0 -0 nan
nan -0 0 -0 -0 -1 -1 -0 -0 0 0 0 -0 -0 -0 -1 -0 -0 -0 -0 0 1 1 0 -0 -0 -0 -1 -1 -0 0 -0 -0 -0 -0 -0 -0 -0 -0 -0 -0 -0 -0 -0 nan
nan -0 0 -0 -0 -2 -1 0 0 -0 -0 0 0 0 0 -0 0 1 0 -1 0 -0 -0 0 0 -1 -1 -0 0 -1 -0 -0 0 -0 -0 -0 -0 -0 -0 -0 -0 -0 -0 -0 nan
nan -0 -0 0 -1 -1 -0 0 -0 -0 -0 -0 0 0 0 0 -0 0 1 0 0 0 -0 0 -0 -0 0 0 -1 0 -0 0 0 -0 -0 -0 -0 -0 -0 -0 -1 -0 -0 -0 nan
nan -0 -0 -0 -1 -0 0 -0 -0 -0 -0 -0 -0 -0 -0 0 0 -0 -0 -0 -0 0 0 0 0 0 0 -0 0 -0 0 -0 -0 0 -0 0 0 -0 -0 -0 -1 -0 -0 -0 nan
nan -0 -0 -1 -1 -0 0 -0 -0 -0 -0 0 0 -0 -0 -0 0 -0 -0 -0 -0 -0 0 -0 0 0 0 0 -0 0 0 0 0 -0 -0 0 -0 -0 -0 -0 -0 -0 -0 -0 nan
nan -0 -0 -0 -0 -0 0 0 -0 -0 -0 -0 -0 -0 0 -0 -0 -0 -0 -0 -0 -1 -1 -0 0 -0 0 -1 -0 0 -0 -0 -0 -0 0 0 -0 -0 -0 -0 -0 -0 -0 -0 nan
nan -0 -0 -0 -0 -0 -0 0 0 0 0 0 0 0 0 -0 -0 0 0 -0 -0 -0 -0 -0 -0 -0 -0 0 0 0 -0 -0 -0 0 -0 -0 -0 -0 -0 0 0 -0 -0 -0 nan
nan nan nan nan nan nan nan nan nan nan nan nan nan nan nan nan nan nan nan nan nan nan nan nan nan nan nan nan nan nan nan nan nan nan nan nan nan nan nan nan nan nan nan nan nan
Wind_Speed
17 17 17 18 20 21 21 21 21 21 21 21 19 16 10 9 11 19 30 25 27 25 24 20 15 11 11 12 18 10 7 19 20 6 11 8 2 20 16 25 25 8 14 26 34
17 16 17 18 20 20 21 19 21 20 21 19 18 17 10 7 5 22 25 26 27 27 26 23 24 19 14 8 7 8 12 26 12 12 6 12 16 17 6 6 12 9 16 31 43
16 16 16 18 19 20 19 18 18 18 17 15 11 11 9 6 4 22 27 29 30 26 23 16 15 20 12 12 7 6 21 13 20 16 22 16 16 17 9 8 13 20 31 42 48
17 16 16 17 18 18 17 16 15 14 13 12 8 8 7 6 5 24 25 26 30 25 19 18 17 15 5 5 12 12 26 23 22 27 21 8 15 14 6 7 23 19 28 47 49
17 17 16 17 18 17 16 14 14 14 14 14 6 8 8 11 13 28 24 28 35 30 20 18 21 14 6 8 14 16 19 26 25 27 28 22 20 17 18 15 5 12 28 38 38
19 19 17 17 18 18 15 12 14 16 14 13 9 7 11 10 21 27 23 31 40 28 20 15 10 16 17 11 10 12 17 20 22 28 35 15 18 18 13 23 16 6 28 33 36
19 20 19 18 19 19 16 11 13 12 13 10 13 7 9 14 27 20 28 37 37 21 25 21 20 17 9 8 13 11 9 14 15 18 17 18 20 19 26 23 15 8 17 32 35
19 20 20 19 20 20 17 12 11 11 11 9 15 5 6 9 29 24 33 42 33 23 26 22 19 24 22 14 15 9 7 7 10 13 12 8 21 4 20 20 19 18 6 23 38
19 20 21 20 18 21 18 12 10 10 11 8 13 5 4 24 36 29 36 51 31 26 21 17 8 13 7 3 4 4 7 14 12 15 7 18 10 14 16 25 22 22 19 17 30
18 20 21 20 18 21 20 11 8 7 9 5 7 4 21 28 32 31 43 42 27 29 25 19 11 7 9 6 2 5 5 6 6 5 12 19 16 15 19 18 21 23 25 20 19
17 19 20 20 18 21 22 8 7 4 21 13 7 8 22 27 17 35 46 34 30 24 13 16 10 8 9 8 8 7 6 10 12 10 8 15 16 13 24 15 17 22 20 21 13
17 18 20 19 17 23 23 14 10 5 3 7 9 15 25 26 23 34 42 27 14 13 19 9 14 14 14 14 14 11 5 5 10 9 6 10 12 15 14 7 5 18 10 4 5
16 18 20 18 12 23 22 17 7 2 2 2 7 20 22 26 16 23 37 25 13 13 17 5 11 14 12 13 16 12 3 9 7 17 10 9 8 10 12 9 15 16 12 10 9
15 19 20 17 8 17 17 13 5 4 4 7 7 12 25 16 13 21 31 19 7 7 11 4 15 15 12 17 15 7 11 12 11 8 3 3 4 16 14 9 14 17 18 14 10
14 15 20 18 14 19 17 10 2 2 5 9 5 9 26 20 19 17 34 18 12 13 8 8 12 10 14 17 12 4 17 14 11 4 8 2 1 4 14 13 12 18 20 19 14
13 12 17 16 19 18 16 8 2 6 4 6 3 11 13 14 18 15 18 33 7 6 15 1 10 4 3 19 5 16 7 9 5 3 5 7 6 8 9 11 16 19 21 22 18
10 11 16 17 18 18 15 4 5 7 4 9 7 10 11 12 9 11 9 11 11 8 17 9 4 3 13 11 9 16 6 4 3 2 5 10 5 5 8 9 13 15 20 23 22
7 11 17 17 14 17 11 5 9 2 4 5 6 15 4 16 8 12 4 7 6 5 4 5 8 6 8 4 6 5 2 3 4 2 2 11 4 5 8 16 18 19 20 24 27
5 6 18 12 13 13 5 7 4 2 4 8 12 3 3 9 6 8 3 5 2 5 3 3 5 6 5 4 6 8 4 4 4 4 3 3 5 11 14 13 18 22 24 27 29
5 1 16 10 11 6 7 5 2 2 4 3 6 6 6 12 9 8 5 4 6 11 11 5 6 2 4 7 10 6 4 5 4 5 3 4 5 5 11 13 14 17 22 25 28
4 3 12 5 6 12 4 3 2 5 5 2 2 4 4 7 8 5 4 5 9 9 9 2 3 7 5 3 3 5 5 4 1 3 3 2 2 10 12 10 11 16 21 24 26
2 1 10 3 7 6 3 3 1 3 6 4 3 2 3 7 5 4 5 2 18 14 6 4 3 3 3 5 5 5 1 3 3 5 3 2 2 8 11 16 19 17 22 23 27
2 2 8 4 3 2 2 3 2 2 2 3 2 2 3 4 4 4 6 12 22 9 5 6 2 4 8 6 4 5 4 2 3 2 2 2 2 4 13 14 16 21 21 23 26
1 2 6 11 7 5 3 2 1 1 3 2 3 3 6 3 2 5 8 7 19 13 16 11 2 3 3 7 3 3 3 3 3 3 4 1 4 6 6 7 16 20 21 21 22
1 1 1 1 4 6 3 1 1 2 1 2 1 3 4 3 5 2 3 7 7 13 14 4 2 5 11 9 7 4 1 2 3 4 3 5 1 5 6 6 11 14 15 17 19
1 3 4 4 5 3 1 1 1 1 2 2 1 5 4 3 5 5 3 2 3 9 5 6 3 7 5 6 9 6 4 2 2 2 3 3 4 4 8 6 10 12 14 15 17
2 5 2 4 3 4 3 3 4 2 3 4 3 2 4 3 8 16 13 13 14 4 4 4 2 4 4 9 10 2 2 2 3 3 4 1 6 4 3 8 7 11 12 13 13
Wind_Direction
37 33 31 33 35 34 32 32 30 29 28 27 30 33 112 82 29 9 24 359 350 345 334 326 320 301 271 269 246 258 238 238 228 199 223 207 183 241 285 225 218 190 163 178 164
29 26 26 30 32 31 30 30 29 27 27 29 42 49 69 80 40 11 5 355 350 344 341 339 332 344 316 288 258 216 239 240 234 233 275 263 266 271 288 259 194 118 158 163 163
23 20 21 28 29 27 27 30 27 23 22 24 34 48 39 14 21 355 351 351 348 342 339 335 325 323 275 256 237 253 243 250 257 271 268 276 284 272 240 231 200 149 151 164 166
16 15 16 23 23 24 24 24 24 21 19 21 44 45 45 54 48 350 341 343 344 339 337 335 326 322 289 264 244 258 264 268 275 279 275 280 326 305 224 245 195 182 178 168 168
11 10 11 18 16 16 18 21 18 14 15 12 41 52 43 41 11 337 337 332 341 337 333 320 313 295 255 293 321 253 260 271 274 286 284 290 276 264 280 243 203 179 182 177 182
10 8 10 12 11 12 13 13 12 9 360 12 38 38 27 62 348 342 328 335 343 336 323 312 283 292 291 269 258 289 315 283 274 266 271 277 292 275 253 256 261 205 186 192 188
8 7 9 8 8 7 5 2 2 11 14 23 33 18 39 38 346 353 336 341 340 331 319 308 293 271 281 314 286 290 312 300 259 264 255 262 277 256 260 252 270 286 186 197 196
4 7 7 4 6 4 3 360 356 14 22 14 26 43 89 353 357 348 340 340 341 336 326 309 283 263 252 264 297 295 281 278 248 238 237 210 251 241 237 242 257 261 243 193 202
1 4 5 2 3 3 4 7 7 24 13 44 21 79 41 342 4 353 343 345 345 352 337 322 328 227 235 243 299 250 261 281 303 245 200 212 255 237 248 235 247 255 258 207 201
1 2 3 1 2 2 5 1 25 32 23 58 15 83 6 344 347 346 353 349 358 360 357 359 8 50 19 11 287 333 330 312 294 336 248 228 232 256 229 232 234 243 246 247 202
2 2 0 359 2 2 12 26 37 36 51 73 58 84 349 346 350 2 0 4 3 6 4 334 53 23 343 348 322 278 289 303 292 280 321 271 227 223 248 239 234 236 235 247 225
6 5 0 358 360 6 8 51 56 19 43 58 65 28 5 353 7 3 359 9 351 353 356 9 31 6 8 28 12 355 313 335 291 292 243 304 279 219 227 249 230 220 200 178 145
8 7 1 359 3 5 13 37 43 84 143 42 37 19 1 356 12 8 9 4 350 347 341 20 11 16 11 9 9 336 284 345 321 318 261 283 268 228 220 91 62 68 98 108 123
5 7 5 7 7 8 9 9 21 129 89 338 5 15 1 6 19 21 16 6 2 331 329 3 12 18 14 355 351 309 349 324 317 348 306 112 298 188 207 89 47 33 47 48 75
3 2 8 8 13 7 358 4 64 100 49 315 16 348 2 41 345 357 22 11 22 339 28 326 9 12 9 340 332 300 313 285 285 256 301 167 282 317 132 62 17 15 19 27 39
2 8 11 11 8 3 352 2 48 43 310 347 25 344 358 11 2 358 25 32 5 341 2 54 16 52 295 323 4 340 315 285 222 185 230 168 192 25 14 353 3 7 11 20 26
7 16 12 19 8 360 352 11 37 84 0 333 331 340 331 358 351 8 11 17 31 6 349 334 334 21 4 347 353 2 14 353 25 149 226 179 143 57 21 19 12 1 7 18 28
14 25 20 17 10 358 358 58 64 295 346 351 319 314 51 13 340 350 17 12 7 69 332 352 329 18 322 110 254 337 21 69 304 355 262 53 74 40 50 34 23 20 15 27 28
16 32 22 15 10 5 26 48 182 290 314 324 312 348 353 11 327 0 15 0 318 24 33 326 289 353 62 28 31 320 22 208 261 223 267 59 25 52 29 36 26 27 17 25 27
19 359 11 22 18 35 65 106 113 60 342 325 359 17 330 346 355 355 357 324 357 1 359 263 293 307 24 35 9 101 313 20 342 351 33 78 65 17 13 25 25 24 22 23 26
29 348 2 22 26 52 88 110 85 38 19 345 337 289 321 336 329 309 275 293 8 345 358 286 88 299 31 11 226 349 15 359 142 290 320 66 90 343 25 30 31 28 28 24 27
37 14 3 359 48 59 85 125 101 1 23 4 319 319 326 321 297 329 351 23 2 345 351 282 184 310 242 267 167 144 210 117 91 331 309 326 6 350 9 22 19 29 29 27 29
23 342 13 43 85 65 141 114 128 51 50 21 308 352 10 316 338 323 9 340 353 334 328 346 334 339 346 347 3 76 318 242 224 192 329 289 214 4 19 15 11 17 23 25 27
357 1 31 60 84 118 119 359 65 128 142 283 269 358 339 283 314 309 333 345 339 15 358 355 300 300 221 242 216 1 5 343 76 53 301 217 283 337 25 16 15 9 12 17 22
76 103 69 35 50 102 120 166 351 1 21 33 28 49 334 285 324 347 355 322 328 7 351 45 261 319 298 254 237 246 61 34 82 237 118 269 197 304 349 18 9 360 6 9 13
207 155 119 106 127 132 51 156 160 284 212 269 177 303 301 201 173 259 33 323 296 327 339 349 300 325 303 341 213 263 41 68 109 331 348 307 297 244 339 327 350 360 357 5 9
145 155 173 148 138 90 209 179 188 182 223 217 243 299 289 231 275 282 271 264 263 275 306 349 3 336 278 330 303 116 242 342 223 217 168 9 237 297 331 337 334 352 351 1 5
Height
1541 1539 1536 1532 1529 1526 1524 1522 1520 1518 1515 1513 1510 1508 1507 1507 1506 1504 1500 1510 1506 1501 1496 1491 1489 1488 1486 1485 1486 1485 1477 1459 1462 1467 1463 1457 1459 1458 1459 1459 1461 1461 1461 1465 1474
1542 1539 1536 1532 1529 1526 1524 1522 1520 1518 1516 1514 1512 1511 1510 1508 1507 1505 1511 1507 1504 1499 1493 1490 1487 1487 1486 1483 1481 1480 1467 1451 1459 1463 1463 1459 1456 1455 1459 1455 1453 1456 1459 1464 1470
1543 1540 1537 1533 1530 1527 1525 1523 1521 1520 1518 1516 1514 1512 1510 1509 1509 1510 1509 1505 1501 1497 1494 1492 1489 1487 1483 1481 1478 1473 1457 1456 1460 1461 1461 1458 1456 1454 1453 1454 1448 1451 1456 1461 1466
1544 1541 1538 1534 1531 1528 1525 1523 1522 1521 1519 1517 1515 1512 1510 1508 1516 1513 1509 1505 1500 1496 1492 1489 1487 1486 1482 1478 1474 1472 1460 1461 1461 1459 1460 1457 1456 1453 1450 1448 1448 1450 1453 1458 1463
1544 1541 1538 1534 1531 1528 1525 1524 1522 1520 1519 1516 1515 1513 1512 1510 1516 1512 1508 1502 1499 1492 1489 1488 1485 1484 1482 1474 1472 1465 1460 1461 1460 1458 1457 1457 1453 1455 1448 1447 1448 1450 1451 1456 1461
1545 1542 1538 1534 1531 1527 1525 1523 1522 1520 1518 1516 1514 1514 1512 1515 1517 1511 1505 1500 1495 1488 1485 1485 1482 1482 1478 1473 1471 1464 1461 1457 1457 1456 1450 1455 1452 1451 1442 1444 1445 1451 1449 1453 1458
1545 1542 1538 1535 1531 1527 1525 1523 1521 1520 1517 1516 1514 1514 1515 1521 1516 1510 1504 1500 1493 1487 1480 1479 1478 1478 1475 1471 1465 1463 1461 1454 1451 1453 1449 1454 1447 1440 1442 1441 1442 1444 1447 1451 1455
1546 1543 1538 1534 1531 1527 1524 1522 1521 1520 1517 1516 1515 1514 1517 1519 1515 1507 1502 1496 1489 1483 1477 1472 1470 1470 1470 1469 1465 1464 1460 1455 1441 1446 1445 1453 1435 1435 1438 1437 1438 1441 1447 1448 1454
1546 1543 1538 1535 1531 1527 1524 1521 1520 1519 1517 1516 1516 1514 1519 1517 1509 1507 1503 1492 1484 1479 1472 1468 1464 1464 1467 1468 1472 1464 1464 1455 1445 1439 1442 1442 1435 1435 1436 1433 1434 1438 1442 1447 1451
1546 1543 1539 1535 1531 1527 1523 1520 1519 1519 1517 1517 1518 1519 1519 1517 1513 1507 1503 1495 1486 1480 1470 1467 1466 1471 1478 1477 1483 1471 1464 1455 1450 1440 1434 1432 1434 1431 1431 1433 1432 1435 1440 1443 1448
1546 1543 1539 1535 1531 1527 1523 1519 1523 1522 1521 1526 1528 1526 1525 1521 1515 1509 1502 1494 1488 1484 1483 1476 1477 1481 1478 1474 1475 1472 1467 1462 1454 1444 1446 1429 1430 1429 1428 1432 1434 1434 1439 1442 1445
1545 1542 1539 1535 1531 1526 1523 1520 1526 1529 1528 1528 1528 1527 1525 1520 1516 1510 1506 1499 1496 1493 1488 1485 1486 1483 1479 1478 1479 1474 1472 1462 1446 1441 1444 1437 1433 1425 1428 1429 1433 1433 1437 1441 1443
1545 1543 1539 1535 1531 1526 1523 1524 1526 1527 1529 1529 1528 1527 1525 1521 1519 1514 1509 1506 1501 1498 1494 1493 1492 1485 1482 1480 1482 1479 1474 1467 1468 1453 1438 1438 1433 1425 1422 1433 1437 1438 1440 1442 1444
1545 1543 1539 1535 1533 1528 1525 1525 1526 1526 1533 1535 1531 1531 1527 1521 1523 1519 1515 1512 1508 1506 1498 1494 1493 1490 1487 1485 1485 1482 1469 1469 1467 1466 1447 1440 1421 1413 1418 1438 1447 1451 1448 1448 1445
1545 1543 1539 1534 1533 1529 1529 1525 1525 1527 1557 1536 1534 1534 1532 1532 1532 1524 1519 1512 1512 1509 1510 1507 1497 1495 1491 1490 1483 1478 1474 1469 1466 1469 1458 1437 1440 1421 1420 1449 1464 1463 1459 1454 1450
1545 1543 1540 1537 1532 1530 1527 1525 1526 1541 1572 1540 1537 1536 1536 1533 1531 1527 1524 1518 1514 1510 1508 1507 1499 1499 1501 1490 1486 1483 1471 1463 1460 1464 1448 1429 1438 1473 1478 1483 1476 1473 1469 1461 1455
1545 1544 1540 1537 1535 1531 1527 1526 1543 1567 1547 1547 1544 1541 1540 1537 1533 1529 1529 1527 1528 1532 1518 1509 1502 1502 1500 1492 1484 1487 1488 1500 1493 1478 1449 1417 1438 1493 1494 1489 1486 1481 1476 1467 1461
1545 1545 1541 1538 1535 1532 1528 1530 1561 1557 1557 1551 1549 1544 1543 1541 1537 1534 1534 1541 1531 1536 1534 1534 1529 1515 1508 1513 1511 1503 1504 1507 1525 1486 1450 1445 1476 1493 1495 1491 1492 1488 1481 1472 1466
1544 1545 1542 1540 1537 1534 1531 1560 1571 1566 1563 1559 1550 1545 1546 1546 1546 1540 1546 1545 1539 1535 1542 1541 1529 1511 1511 1510 1509 1513 1523 1514 1509 1490 1464 1476 1492 1485 1492 1494 1494 1490 1486 1477 1473
1545 1545 1543 1541 1539 1536 1538 1559 1566 1563 1562 1560 1559 1556 1557 1549 1550 1547 1549 1542 1539 1536 1532 1537 1527 1516 1511 1513 1515 1518 1516 1522 1515 1500 1469 1491 1503 1509 1503 1502 1498 1495 1491 1485 1480
1545 1546 1545 1542 1541 1539 1559 1564 1562 1563 1562 1562 1562 1561 1558 1559 1555 1553 1560 1546 1539 1535 1532 1533 1543 1527 1515 1534 1538 1528 1531 1530 1529 1512 1493 1482 1510 1518 1510 1508 1505 1500 1497 1490 1486
1546 1548 1546 1543 1544 1551 1561 1561 1562 1563 1562 1562 1561 1560 1559 1558 1555 1550 1548 1544 1541 1537 1536 1532 1536 1543 1536 1526 1527 1536 1537 1540 1538 1527 1515 1500 1524 1516 1513 1510 1504 1504 1498 1497 1490
1547 1548 1547 1543 1554 1560 1560 1561 1562 1562 1563 1563 1562 1560 1560 1558 1560 1550 1548 1545 1542 1539 1539 1532 1539 1550 1542 1537 1526 1538 1537 1535 1530 1530 1520 1521 1534 1522 1515 1516 1516 1504 1503 1500 1494
1549 1550 1548 1547 1552 1555 1559 1561 1561 1562 1562 1562 1561 1560 1560 1558 1556 1556 1550 1546 1543 1540 1536 1534 1535 1533 1544 1540 1536 1538 1531 1536 1535 1539 1540 1540 1539 1524 1525 1521 1511 1509 1507 1503 1501
1549 1550 1551 1556 1555 1555 1557 1560 1561 1562 1562 1561 1561 1561 1562 1565 1557 1554 1552 1550 1545 1543 1540 1539 1550 1534 1532 1527 1522 1524 1528 1535 1544 1543 1542 1541 1537 1523 1513 1512 1516 1518 1514 1510 1504
1549 1549 1552 1553 1554 1555 1558 1560 1561 1561 1561 1561 1561 1560 1558 1563 1563 1568 1560 1554 1552 1545 1543 1540 1549 1535 1528 1513 1516 1518 1525 1528 1531 1540 1541 1536 1534 1523 1518 1519 1520 1518 1514 1511 1506
1547 1548 1549 1555 1554 1557 1559 1558 1558 1559 1559 1558 1558 1558 1556 1555 1554 1552 1553 1553 1551 1550 1546 1545 1550 1542 1542 1519 1515 1529 1534 1529 1533 1535 1537 1539 1534 1525 1525 1521 1519 1518 1517 1512 1510